Atlanta, GA

3:34 AM EST on December 11, 2016 (GMT -0500)
Dekalb-Peachtree

Weather History for KPDK - October, 2012

Change the Weather History Date:

Wednesday, October 24, 2012

  Actual Average Record
Temperature  
Mean Temperature 64 °F 59 °F  
Max Temperature 79 °F 70 °F 80 °F (2010)
Min Temperature 48 °F 48 °F 32 °F (2006)
Degree Days  
Heating Degree Days 2 7  
Month to date heating degree days 90  
Since 1 July heating degree days 100  
Cooling Degree Days 0 1  
Month to date cooling degree days 44  
Year to date cooling degree days 1748  
Growing Degree Days 14 (Base 50)    
Moisture  
Dew Point 52 °F    
Average Humidity 74    
Maximum Humidity 96    
Minimum Humidity 40    
Precipitation  
Precipitation 0.01 in 0.10 in 0.79 in (2008)
Month to date precipitation 2.71  
Year to date precipitation 43.85  
Sea Level Pressure  
Sea Level Pressure 30.13 in    
Wind  
Wind Speed 0 mph (ESE)    
Max Wind Speed 4 mph    
Max Gust Speed -    
Visibility 9 miles    
Events      
T = Trace of Precipitation, MM = Missing Value Source: NWS Daily Summary

Daily Weather History Graph

Daily Weather History Graph

Search for Another Location

Airport or City:

Trip Planner

Search our weather history database for the weather conditions in past years. The results will help you decide how hot, cold, wet, or windy it might be!

Date:

Astronomy

Oct. 24, 2012 Rise Set
Actual Time 7:49 AM EDT 6:52 PM EDT
Civil Twilight 7:24 AM EDT 7:17 PM EDT
Nautical Twilight 6:55 AM EDT 7:46 PM EDT
Astronomical Twilight 6:26 AM EDT 8:15 PM EDT
Moon 3:56 PM EDT (10/24) 2:57 AM EDT (10/24)
Length of Visible Light 11h 53m
Length of Day
11h 02m
Waxing Gibbous, 76% of the Moon is Illuminated
Oct 24
Waxing Gibbous
Oct 29
Full
Nov 6
Last Quarter
Nov 13
New
Nov 20
First Quarter

Hourly Weather History & Observations

Time (EDT) Temp. Dew Point Humidity Pressure Visibility Wind Dir Wind Speed Gust Speed Precip Events Conditions
12:53 AM 50.0 °F 48.9 °F 96% 30.14 in 9.0 mi Calm Calm - N/A   Clear
1:53 AM 52.0 °F 50.0 °F 93% 30.13 in 8.0 mi Calm Calm - N/A   Clear
2:53 AM 50.0 °F 48.9 °F 96% 30.13 in 7.0 mi Calm Calm - N/A   Clear
3:53 AM 48.0 °F 46.9 °F 96% 30.14 in 9.0 mi Calm Calm - N/A   Clear
4:53 AM 50.0 °F 48.0 °F 93% 30.14 in 8.0 mi Calm Calm - N/A   Clear
5:53 AM 48.9 °F 46.9 °F 93% 30.16 in 8.0 mi Calm Calm - N/A   Clear
6:53 AM 50.0 °F 48.9 °F 96% 30.17 in 8.0 mi Calm Calm - N/A   Clear
7:53 AM 50.0 °F 48.0 °F 93% 30.19 in 6.0 mi Calm Calm - 0.01 in   Clear
8:53 AM 55.9 °F 53.1 °F 90% 30.21 in 7.0 mi Calm Calm - N/A   Clear
9:53 AM 64.0 °F 54.0 °F 70% 30.20 in 8.0 mi Calm Calm - N/A   Clear
10:53 AM 69.1 °F 57.0 °F 65% 30.19 in 10.0 mi Calm Calm - N/A   Clear
11:53 AM 72.0 °F 57.9 °F 61% 30.18 in 10.0 mi Calm Calm - N/A   Clear
12:53 PM 75.0 °F 55.0 °F 50% 30.16 in 10.0 mi NNE 3.5 mph - N/A   Clear
1:53 PM 77.0 °F 54.0 °F 45% 30.12 in 10.0 mi Calm Calm - N/A   Clear
2:53 PM 79.0 °F 55.0 °F 44% 30.09 in 10.0 mi ENE 3.5 mph - N/A   Clear
3:53 PM 78.1 °F 54.0 °F 43% 30.08 in 10.0 mi Calm Calm - N/A   Clear
4:53 PM 78.1 °F 52.0 °F 40% 30.07 in 10.0 mi SSW 3.5 mph - N/A   Clear
5:53 PM 77.0 °F 53.1 °F 43% 30.07 in 10.0 mi SSE 3.5 mph - N/A   Clear
6:53 PM 71.1 °F 53.1 °F 53% 30.09 in 10.0 mi Calm Calm - N/A   Clear
7:53 PM 64.9 °F 54.0 °F 68% 30.10 in 10.0 mi Calm Calm - N/A   Clear
8:53 PM 60.1 °F 54.0 °F 80% 30.11 in 10.0 mi Calm Calm - N/A   Clear
9:53 PM 59.0 °F 54.0 °F 83% 30.10 in 10.0 mi Calm Calm - N/A   Clear
10:53 PM 57.0 °F 54.0 °F 89% 30.10 in 10.0 mi Calm Calm - N/A   Clear
11:53 PM 55.9 °F 54.0 °F 93% 30.10 in 10.0 mi Calm Calm - N/A   Clear